Location: Unspecified
(50.9333°N, 0.0000°E)
Time: 03:26:28
(UTC+00:00)

THEOS - Visible Passes

Search period start: 04 April 2026 00:00
Search period end: 14 April 2026 00:00
Orbit: 824 x 826 km, 98.6° (Epoch: 29 March)

Date Brightness Start Highest point End Pass type
(mag) Time Alt. Az. Time Alt. Az. Time Alt. Az.
4 Apr 5.7 20:14:16 20° SE 20:17:54 60° ENE 20:23:13 10° N visible
4 Apr 7.5 21:55:43 17° SW 21:58:30 25° W 22:02:53 10° NW visible
5 Apr 6.1 19:54:34 15° SE 19:58:38 43° ENE 20:03:43 10° N visible
5 Apr 7.0 21:36:01 20° SW 21:38:57 34° W 21:43:51 10° NNW visible
6 Apr 6.5 19:34:52 11° ESE 19:39:25 32° ENE 19:44:09 10° N visible
6 Apr 6.4 21:16:19 23° SSW 21:19:27 48° W 21:24:41 10° NNW visible
7 Apr 6.9 19:16:02 10° ESE 19:20:15 24° ENE 19:24:30 10° N visible
7 Apr 5.9 20:56:37 23° S 21:00:01 68° WSW 21:05:24 10° NNW visible
7 Apr 8.2 22:39:40 10° W 22:41:15 11° W 22:42:50 10° WNW visible
8 Apr 5.6 20:36:55 21° SSE 20:40:38 88° ENE 20:46:03 10° NNW visible
8 Apr 8.0 22:18:22 10° SW 22:21:34 16° W 22:24:54 10° NW visible
9 Apr 5.7 20:17:13 17° SSE 20:21:18 64° ENE 20:26:38 10° N visible
9 Apr 7.6 21:58:40 14° SW 22:01:56 23° W 22:06:11 10° NW visible
10 Apr 6.1 19:57:31 13° SE 20:02:00 46° ENE 20:07:09 10° N visible
10 Apr 7.1 21:38:58 17° SSW 21:42:22 32° W 21:47:11 10° NNW visible
11 Apr 6.5 19:38:00 10° SE 19:42:47 34° ENE 19:47:35 10° N visible
11 Apr 6.5 21:19:16 19° SSW 21:22:52 45° W 21:28:02 10° NNW visible
12 Apr 6.9 19:19:16 10° ESE 19:23:36 26° ENE 19:27:57 10° N visible
12 Apr 6.0 20:59:34 19° S 21:03:24 63° WSW 21:08:47 10° NNW visible
12 Apr 8.3 22:43:54 10° W 22:44:42 10° W 22:45:31 10° WNW visible
13 Apr 5.6 20:39:52 18° SSE 20:44:01 87° WSW 20:49:26 10° NNW visible
13 Apr 8.0 22:21:55 10° WSW 22:25:01 15° W 22:28:06 10° NW visible
